<?xml version="1.0" encoding="UTF-8" standalone="no" ?>
<gpx xmlns="http://www.topografix.com/GPX/1/1" xmlns:xsi="http://www.w3.org/2001/XMLSchema-instance" xsi:schemaLocation="http://www.topografix.com/GPX/1/1 http://www.topografix.com/GPX/1/1/gpx.xsd" version="1.1" creator="VisuGPX - https://www.visugpx.com">
  <metadata>
    <name>source du Betz</name>
    <desc><![CDATA[Au pays des étangs et de la source du Betz.]]></desc>
  </metadata>
  <trk>
    <name><![CDATA[SB]]></name>
    <trkseg>
      <trkpt lat="48.11383" lon="3.06627">
        <ele>165</ele>
        <time>2009-10-18T16:22:40Z</time>
      </trkpt>
      <trkpt lat="48.11369" lon="3.0672">
        <ele>166</ele>
        <time>2009-10-18T16:22:40Z</time>
      </trkpt>
      <trkpt lat="48.11511" lon="3.06752">
        <ele>167</ele>
        <time>2009-10-18T16:22:40Z</time>
      </trkpt>
      <trkpt lat="48.11593" lon="3.06827">
        <ele>167</ele>
        <time>2009-10-18T16:22:40Z</time>
      </trkpt>
      <trkpt lat="48.11649" lon="3.06835">
        <ele>166</ele>
        <time>2009-10-18T16:22:40Z</time>
      </trkpt>
      <trkpt lat="48.11792" lon="3.06605">
        <ele>166</ele>
        <time>2009-10-18T16:22:40Z</time>
      </trkpt>
      <trkpt lat="48.11843" lon="3.06794">
        <ele>165</ele>
        <time>2009-10-18T16:22:40Z</time>
      </trkpt>
      <trkpt lat="48.11853" lon="3.06935">
        <ele>166</ele>
        <time>2009-10-18T16:22:40Z</time>
      </trkpt>
      <trkpt lat="48.11927" lon="3.07017">
        <ele>169</ele>
        <time>2009-10-18T16:22:40Z</time>
      </trkpt>
      <trkpt lat="48.11969" lon="3.07138">
        <ele>172</ele>
        <time>2009-10-18T16:22:40Z</time>
      </trkpt>
      <trkpt lat="48.11984" lon="3.07293">
        <ele>172</ele>
        <time>2009-10-18T16:22:40Z</time>
      </trkpt>
      <trkpt lat="48.12034" lon="3.07458">
        <ele>172</ele>
        <time>2009-10-18T16:22:40Z</time>
      </trkpt>
      <trkpt lat="48.12119" lon="3.07523">
        <ele>171</ele>
        <time>2009-10-18T16:22:40Z</time>
      </trkpt>
      <trkpt lat="48.12158" lon="3.07906">
        <ele>173</ele>
        <time>2009-10-18T16:22:40Z</time>
      </trkpt>
      <trkpt lat="48.12492" lon="3.0827">
        <ele>175</ele>
        <time>2009-10-18T16:22:40Z</time>
      </trkpt>
      <trkpt lat="48.12579" lon="3.08083">
        <ele>174</ele>
        <time>2009-10-18T16:22:40Z</time>
      </trkpt>
      <trkpt lat="48.1269" lon="3.07897">
        <ele>174</ele>
      </trkpt>
      <trkpt lat="48.12803" lon="3.07576">
        <ele>176</ele>
      </trkpt>
      <trkpt lat="48.12859" lon="3.07473">
        <ele>175</ele>
      </trkpt>
      <trkpt lat="48.12889" lon="3.07332">
        <ele>175</ele>
        <time>2009-10-18T16:22:40Z</time>
      </trkpt>
      <trkpt lat="48.12845" lon="3.07285">
        <ele>176</ele>
        <time>2009-10-18T16:22:40Z</time>
      </trkpt>
      <trkpt lat="48.12809" lon="3.07194">
        <ele>175</ele>
      </trkpt>
      <trkpt lat="48.12757" lon="3.06924">
        <ele>175</ele>
        <time>2009-10-18T16:22:40Z</time>
      </trkpt>
      <trkpt lat="48.12713" lon="3.06836">
        <ele>174</ele>
      </trkpt>
      <trkpt lat="48.12582" lon="3.062">
        <ele>171</ele>
        <time>2009-10-18T16:22:40Z</time>
      </trkpt>
      <trkpt lat="48.12678" lon="3.06218">
        <ele>171</ele>
        <time>2009-10-18T16:22:40Z</time>
      </trkpt>
      <trkpt lat="48.12552" lon="3.05555">
        <ele>161.961624</ele>
        <time>2009-10-18T16:22:40Z</time>
      </trkpt>
      <trkpt lat="48.12554" lon="3.0531">
        <ele>158.784561</ele>
      </trkpt>
      <trkpt lat="48.12498" lon="3.05124">
        <ele>151.991562</ele>
      </trkpt>
      <trkpt lat="48.12795" lon="3.05142">
        <ele>158.352402</ele>
      </trkpt>
      <trkpt lat="48.13123" lon="3.05217">
        <ele>157.551254</ele>
      </trkpt>
      <trkpt lat="48.13123" lon="3.05626">
        <ele>164</ele>
        <time>2009-10-18T16:22:40Z</time>
      </trkpt>
      <trkpt lat="48.13257" lon="3.05715">
        <ele>165</ele>
        <time>2009-10-18T16:22:40Z</time>
      </trkpt>
      <trkpt lat="48.13422" lon="3.0559">
        <ele>160</ele>
        <time>2009-10-18T16:22:40Z</time>
      </trkpt>
      <trkpt lat="48.13705" lon="3.05584">
        <ele>157</ele>
        <time>2009-10-18T16:22:40Z</time>
      </trkpt>
      <trkpt lat="48.13733" lon="3.0541">
        <ele>155</ele>
        <time>2009-10-18T16:22:40Z</time>
      </trkpt>
      <trkpt lat="48.13776" lon="3.05417">
        <ele>156</ele>
      </trkpt>
      <trkpt lat="48.14085" lon="3.05267">
        <ele>156</ele>
        <time>2009-10-18T16:22:40Z</time>
      </trkpt>
      <trkpt lat="48.14024" lon="3.0494">
        <ele>152</ele>
        <time>2009-10-18T16:22:40Z</time>
      </trkpt>
      <trkpt lat="48.13924" lon="3.0468">
        <ele>150</ele>
      </trkpt>
      <trkpt lat="48.1382" lon="3.04457">
        <ele>150</ele>
        <time>2009-10-18T16:22:40Z</time>
      </trkpt>
      <trkpt lat="48.13722" lon="3.04345">
        <ele>151</ele>
      </trkpt>
      <trkpt lat="48.13641" lon="3.04293">
        <ele>151</ele>
        <time>2009-10-18T16:22:40Z</time>
      </trkpt>
      <trkpt lat="48.13499" lon="3.0405">
        <ele>153</ele>
        <time>2009-10-18T16:22:40Z</time>
      </trkpt>
      <trkpt lat="48.13497" lon="3.03878">
        <ele>151</ele>
        <time>2009-10-18T16:22:40Z</time>
      </trkpt>
      <trkpt lat="48.13712" lon="3.03787">
        <ele>152</ele>
        <time>2009-10-18T16:22:40Z</time>
      </trkpt>
      <trkpt lat="48.13791" lon="3.03593">
        <ele>151</ele>
        <time>2009-10-18T16:22:40Z</time>
      </trkpt>
      <trkpt lat="48.13814" lon="3.03496">
        <ele>148</ele>
      </trkpt>
      <trkpt lat="48.13777" lon="3.03355">
        <ele>145</ele>
        <time>2009-10-18T16:22:40Z</time>
      </trkpt>
      <trkpt lat="48.1348" lon="3.03055">
        <ele>149</ele>
        <time>2009-10-18T16:22:40Z</time>
      </trkpt>
      <trkpt lat="48.13421" lon="3.03098">
        <ele>149</ele>
        <time>2009-10-18T16:22:40Z</time>
      </trkpt>
      <trkpt lat="48.13367" lon="3.03054">
        <ele>149</ele>
      </trkpt>
      <trkpt lat="48.13319" lon="3.02929">
        <ele>149</ele>
        <time>2009-10-18T16:22:40Z</time>
      </trkpt>
      <trkpt lat="48.12563" lon="3.02278">
        <ele>148</ele>
      </trkpt>
      <trkpt lat="48.12482" lon="3.02179">
        <ele>148</ele>
        <time>2009-10-18T16:22:40Z</time>
      </trkpt>
      <trkpt lat="48.12395" lon="3.02111">
        <ele>148</ele>
      </trkpt>
      <trkpt lat="48.1194" lon="3.01813">
        <ele>150</ele>
        <time>2009-10-18T16:22:40Z</time>
      </trkpt>
      <trkpt lat="48.11746" lon="3.01649">
        <ele>151</ele>
      </trkpt>
      <trkpt lat="48.11577" lon="3.016">
        <ele>150</ele>
        <time>2009-10-18T16:22:40Z</time>
      </trkpt>
      <trkpt lat="48.11592" lon="3.01748">
        <ele>151</ele>
        <time>2009-10-18T16:22:40Z</time>
      </trkpt>
      <trkpt lat="48.11462" lon="3.02126">
        <ele>151</ele>
        <time>2009-10-18T16:22:40Z</time>
      </trkpt>
      <trkpt lat="48.11452" lon="3.02307">
        <ele>151</ele>
        <time>2009-10-18T16:22:40Z</time>
      </trkpt>
      <trkpt lat="48.1148" lon="3.02512">
        <ele>153</ele>
      </trkpt>
      <trkpt lat="48.1142" lon="3.0285">
        <ele>153</ele>
      </trkpt>
      <trkpt lat="48.11403" lon="3.03001">
        <ele>153</ele>
      </trkpt>
      <trkpt lat="48.1135" lon="3.03168">
        <ele>153</ele>
        <time>2009-10-18T16:22:40Z</time>
      </trkpt>
      <trkpt lat="48.11591" lon="3.03484">
        <ele>154</ele>
      </trkpt>
      <trkpt lat="48.11676" lon="3.03632">
        <ele>154</ele>
        <time>2009-10-18T16:22:40Z</time>
      </trkpt>
      <trkpt lat="48.11773" lon="3.04335">
        <ele>157</ele>
        <time>2009-10-18T16:22:40Z</time>
      </trkpt>
      <trkpt lat="48.1176" lon="3.04547">
        <ele>162</ele>
        <time>2009-10-18T16:22:40Z</time>
      </trkpt>
      <trkpt lat="48.11786" lon="3.04769">
        <ele>165</ele>
        <time>2009-10-18T16:22:40Z</time>
      </trkpt>
      <trkpt lat="48.11702" lon="3.04801">
        <ele>164</ele>
        <time>2009-10-18T16:22:40Z</time>
      </trkpt>
      <trkpt lat="48.11638" lon="3.05022">
        <ele>167</ele>
        <time>2009-10-18T16:22:40Z</time>
      </trkpt>
      <trkpt lat="48.11575" lon="3.05008">
        <ele>166</ele>
        <time>2009-10-18T16:22:40Z</time>
      </trkpt>
      <trkpt lat="48.11499" lon="3.05033">
        <ele>166</ele>
      </trkpt>
      <trkpt lat="48.11366" lon="3.05015">
        <ele>166</ele>
        <time>2009-10-18T16:22:40Z</time>
      </trkpt>
      <trkpt lat="48.11279" lon="3.04963">
        <ele>165</ele>
        <time>2009-10-18T16:22:40Z</time>
      </trkpt>
      <trkpt lat="48.11108" lon="3.04978">
        <ele>166</ele>
        <time>2009-10-18T16:22:40Z</time>
      </trkpt>
      <trkpt lat="48.11112" lon="3.05092">
        <ele>168</ele>
      </trkpt>
      <trkpt lat="48.1107" lon="3.05353">
        <ele>170</ele>
      </trkpt>
      <trkpt lat="48.11052" lon="3.05601">
        <ele>171</ele>
      </trkpt>
      <trkpt lat="48.10989" lon="3.05973">
        <ele>171</ele>
        <time>2009-10-18T16:22:40Z</time>
      </trkpt>
      <trkpt lat="48.11045" lon="3.06018">
        <ele>171</ele>
        <time>2009-10-18T16:22:40Z</time>
      </trkpt>
      <trkpt lat="48.11052" lon="3.06071">
        <ele>170</ele>
      </trkpt>
      <trkpt lat="48.11034" lon="3.06319">
        <ele>167</ele>
        <time>2009-10-18T16:22:40Z</time>
      </trkpt>
      <trkpt lat="48.11059" lon="3.06407">
        <ele>167</ele>
      </trkpt>
      <trkpt lat="48.11114" lon="3.06495">
        <ele>166</ele>
        <time>2009-10-18T16:22:40Z</time>
      </trkpt>
      <trkpt lat="48.11145" lon="3.066">
        <ele>165</ele>
      </trkpt>
      <trkpt lat="48.11194" lon="3.06698">
        <ele>163</ele>
      </trkpt>
      <trkpt lat="48.11218" lon="3.06795">
        <ele>163</ele>
        <time>2009-10-18T16:22:40Z</time>
      </trkpt>
      <trkpt lat="48.11328" lon="3.06834">
        <ele>166</ele>
        <time>2009-10-18T16:22:40Z</time>
      </trkpt>
      <trkpt lat="48.11367" lon="3.06633">
        <ele>163</ele>
        <time>2009-10-18T16:22:40Z</time>
      </trkpt>
      <trkpt lat="48.11372" lon="3.06626">
        <ele>163</ele>
        <time>2009-10-18T16:22:40Z</time>
      </trkpt>
    </trkseg>
  </trk>
</gpx>